Year,Month,Day,Hour,Minute,Value (Times are PST for temperature in C)
2014,02,07,00,01,-7.90
2014,02,07,00,02,-7.90
2014,02,07,00,04,-7.90
2014,02,07,00,05,-7.90
2014,02,07,00,06,-7.90
2014,02,07,00,07,-7.90
2014,02,07,00,08,-7.90
2014,02,07,00,09,-7.90
2014,02,07,00,10,-7.90
2014,02,07,00,11,-8.00
2014,02,07,00,12,-8.00
2014,02,07,00,13,-8.00
2014,02,07,00,14,-8.00
2014,02,07,00,15,-8.00
2014,02,07,00,16,-8.00
2014,02,07,00,17,-8.10
2014,02,07,00,18,-8.10
2014,02,07,00,19,-8.10
2014,02,07,00,20,-8.10
2014,02,07,00,21,-8.10
2014,02,07,00,23,-8.20
2014,02,07,00,24,-8.20
2014,02,07,00,25,-8.20
2014,02,07,00,27,-8.20
2014,02,07,00,28,-8.20
2014,02,07,00,29,-8.20
2014,02,07,00,30,-8.20
2014,02,07,00,31,-8.30
2014,02,07,00,33,-8.30
2014,02,07,00,34,-8.30
2014,02,07,00,36,-8.30
2014,02,07,00,37,-8.30
2014,02,07,00,38,-8.30
2014,02,07,00,40,-8.40
2014,02,07,00,41,-8.40
2014,02,07,00,42,-8.40
2014,02,07,00,43,-8.40
2014,02,07,00,45,-8.40
2014,02,07,00,47,-8.50
2014,02,07,00,48,-8.50
2014,02,07,00,50,-8.50
2014,02,07,00,51,-8.50
2014,02,07,00,52,-8.50
2014,02,07,00,53,-8.50
2014,02,07,00,54,-8.50
2014,02,07,00,56,-8.50
2014,02,07,00,58,-8.50
2014,02,07,01,00,-8.60
2014,02,07,01,01,-8.60
2014,02,07,01,03,-8.60
2014,02,07,01,04,-8.60
2014,02,07,01,05,-8.60
2014,02,07,01,06,-8.60
2014,02,07,01,07,-8.70
2014,02,07,01,08,-8.60
2014,02,07,01,09,-8.70
2014,02,07,01,10,-8.70
2014,02,07,01,11,-8.70
2014,02,07,01,13,-8.70
2014,02,07,01,14,-8.70
2014,02,07,01,15,-8.70
2014,02,07,01,16,-8.70
2014,02,07,01,18,-8.80
2014,02,07,01,19,-8.80
2014,02,07,01,20,-8.80
2014,02,07,01,22,-8.80
2014,02,07,01,23,-8.80
2014,02,07,01,24,-8.90
2014,02,07,01,25,-8.90
2014,02,07,01,26,-8.90
2014,02,07,01,28,-8.90
2014,02,07,01,29,-8.90
2014,02,07,01,31,-9.00
2014,02,07,01,32,-9.00
2014,02,07,01,34,-9.00
2014,02,07,01,35,-9.00
2014,02,07,01,36,-9.00
2014,02,07,01,38,-8.90
2014,02,07,01,39,-8.90
2014,02,07,01,40,-8.90
2014,02,07,01,42,-8.80
2014,02,07,01,43,-8.90
2014,02,07,01,44,-8.90
2014,02,07,01,46,-8.90
2014,02,07,01,47,-8.90
2014,02,07,01,48,-8.90
2014,02,07,01,49,-8.90
2014,02,07,01,50,-8.90
2014,02,07,01,51,-8.90
2014,02,07,01,52,-8.90
2014,02,07,01,53,-8.90
2014,02,07,01,54,-8.90
2014,02,07,01,55,-9.00
2014,02,07,01,56,-9.00
2014,02,07,01,57,-9.00
2014,02,07,01,58,-9.00
2014,02,07,01,59,-9.00
2014,02,07,02,00,-9.00
2014,02,07,02,01,-9.10
2014,02,07,02,03,-9.10
2014,02,07,02,04,-9.10
2014,02,07,02,05,-9.10
2014,02,07,02,06,-9.10
2014,02,07,02,07,-9.10
2014,02,07,02,08,-9.10
2014,02,07,02,09,-9.10
2014,02,07,02,11,-9.10
2014,02,07,02,12,-9.10
2014,02,07,02,14,-9.10
2014,02,07,02,15,-9.20
2014,02,07,02,16,-9.20
2014,02,07,02,17,-9.20
2014,02,07,02,18,-9.20
2014,02,07,02,20,-9.20
2014,02,07,02,21,-9.20
2014,02,07,02,23,-9.20
2014,02,07,02,24,-9.20
2014,02,07,02,25,-9.20
2014,02,07,02,27,-9.20
2014,02,07,02,28,-9.20
2014,02,07,02,29,-9.30
2014,02,07,02,30,-9.30
2014,02,07,02,31,-9.30
2014,02,07,02,32,-9.30
2014,02,07,02,33,-9.30
2014,02,07,02,34,-9.30
2014,02,07,02,36,-9.30
2014,02,07,02,37,-9.40
2014,02,07,02,39,-9.40
2014,02,07,02,41,-9.40
2014,02,07,02,42,-9.40
2014,02,07,02,44,-9.40
2014,02,07,02,45,-9.40
2014,02,07,02,46,-9.40
2014,02,07,02,48,-9.50
2014,02,07,02,50,-9.50
2014,02,07,02,52,-9.60
2014,02,07,02,53,-9.60
2014,02,07,02,55,-9.60
2014,02,07,02,56,-9.60
2014,02,07,02,57,-9.60
2014,02,07,02,59,-9.60
2014,02,07,03,00,-9.70
2014,02,07,03,02,-9.70
2014,02,07,03,04,-9.70
2014,02,07,03,05,-9.70
2014,02,07,03,06,-9.70
2014,02,07,03,07,-9.70
2014,02,07,03,08,-9.70
2014,02,07,03,09,-9.70
2014,02,07,03,10,-9.70
2014,02,07,03,11,-9.70
2014,02,07,03,12,-9.70
2014,02,07,03,13,-9.70
2014,02,07,03,15,-9.70
2014,02,07,03,16,-9.70
2014,02,07,03,18,-9.70
2014,02,07,03,19,-9.70
2014,02,07,03,20,-9.70
2014,02,07,03,21,-9.70
2014,02,07,03,23,-9.70
2014,02,07,03,24,-9.70
2014,02,07,03,25,-9.70
2014,02,07,03,26,-9.70
2014,02,07,03,28,-9.70
2014,02,07,03,29,-9.70
2014,02,07,03,30,-9.70
2014,02,07,03,31,-9.70
2014,02,07,03,32,-9.80
2014,02,07,03,34,-9.80
2014,02,07,03,35,-9.80
2014,02,07,03,37,-9.80
2014,02,07,03,38,-9.80
2014,02,07,03,39,-9.90
2014,02,07,03,40,-9.90
2014,02,07,03,42,-9.90
2014,02,07,03,43,-9.90
2014,02,07,03,44,-9.90
2014,02,07,03,45,-9.90
2014,02,07,03,47,-9.90
2014,02,07,03,48,-9.90
2014,02,07,03,49,-9.90
2014,02,07,03,50,-9.90
2014,02,07,03,52,-9.80
2014,02,07,03,53,-9.80
2014,02,07,03,54,-9.80
2014,02,07,03,56,-9.80
2014,02,07,03,57,-9.90
2014,02,07,03,59,-9.90
2014,02,07,04,00,-9.90
2014,02,07,04,01,-9.90
2014,02,07,04,02,-9.90
2014,02,07,04,04,-9.90
2014,02,07,04,05,-9.90
2014,02,07,04,06,-9.90
2014,02,07,04,07,-9.90
2014,02,07,04,08,-9.90
2014,02,07,04,09,-9.90
2014,02,07,04,10,-9.90
2014,02,07,04,11,-9.90
2014,02,07,04,12,-9.90
2014,02,07,04,13,-9.90
2014,02,07,04,15,-9.90
2014,02,07,04,16,-9.90
2014,02,07,04,17,-9.90
2014,02,07,04,19,-10.00
2014,02,07,04,21,-10.00
2014,02,07,04,22,-10.00
2014,02,07,04,23,-10.00
2014,02,07,04,24,-10.00
2014,02,07,04,26,-9.90
2014,02,07,04,27,-9.90
2014,02,07,04,29,-10.00
2014,02,07,04,30,-10.00
2014,02,07,04,31,-10.00
2014,02,07,04,32,-10.00
2014,02,07,04,34,-10.00
2014,02,07,04,35,-10.00
2014,02,07,04,36,-10.00
2014,02,07,04,37,-10.00
2014,02,07,04,38,-10.00
2014,02,07,04,39,-10.00
2014,02,07,04,40,-10.00
2014,02,07,04,41,-10.00
2014,02,07,04,43,-10.00
2014,02,07,04,44,-10.00
2014,02,07,04,45,-10.10
2014,02,07,04,47,-10.10
2014,02,07,04,49,-10.10
2014,02,07,04,50,-10.10
2014,02,07,04,51,-10.10
2014,02,07,04,52,-10.10
2014,02,07,04,53,-10.10
2014,02,07,04,55,-10.20
2014,02,07,04,56,-10.20
2014,02,07,04,57,-10.20
2014,02,07,04,59,-10.20
2014,02,07,05,00,-10.20
2014,02,07,05,01,-10.20
2014,02,07,05,03,-10.20
2014,02,07,05,04,-10.20
2014,02,07,05,05,-10.20
2014,02,07,05,06,-10.20
2014,02,07,05,07,-10.20
2014,02,07,05,08,-10.20
2014,02,07,05,09,-10.20
2014,02,07,05,11,-10.10
2014,02,07,05,13,-10.10
2014,02,07,05,14,-10.10
2014,02,07,05,15,-10.10
2014,02,07,05,16,-10.10
2014,02,07,05,18,-10.10
2014,02,07,05,19,-10.10
2014,02,07,05,21,-10.10
2014,02,07,05,22,-10.10
2014,02,07,05,23,-10.10
2014,02,07,05,24,-10.10
2014,02,07,05,25,-10.10
2014,02,07,05,27,-10.10
2014,02,07,05,28,-10.10
2014,02,07,05,29,-10.10
2014,02,07,05,31,-10.20
2014,02,07,05,32,-10.20
2014,02,07,05,34,-10.20
2014,02,07,05,35,-10.30
2014,02,07,05,37,-10.30
2014,02,07,05,39,-10.30
2014,02,07,05,41,-10.30
2014,02,07,05,42,-10.30
2014,02,07,05,44,-10.30
2014,02,07,05,45,-10.30
2014,02,07,05,47,-10.30
2014,02,07,05,49,-10.30
2014,02,07,05,50,-10.30
2014,02,07,05,51,-10.30
2014,02,07,05,52,-10.30
2014,02,07,05,54,-10.30
2014,02,07,05,55,-10.40
2014,02,07,05,57,-10.40
2014,02,07,05,58,-10.40
2014,02,07,05,59,-10.40
2014,02,07,06,00,-10.40
2014,02,07,06,01,-10.40
2014,02,07,06,03,-10.50
2014,02,07,06,04,-10.50
2014,02,07,06,05,-10.50
2014,02,07,06,06,-10.50
2014,02,07,06,07,-10.50
2014,02,07,06,08,-10.50
2014,02,07,06,09,-10.50
2014,02,07,06,11,-10.50
2014,02,07,06,12,-10.50
2014,02,07,06,13,-10.50
2014,02,07,06,14,-10.50
2014,02,07,06,15,-10.50
2014,02,07,06,16,-10.50
2014,02,07,06,17,-10.50
2014,02,07,06,18,-10.50
2014,02,07,06,19,-10.50
2014,02,07,06,20,-10.50
2014,02,07,06,22,-10.50
2014,02,07,06,23,-10.40
2014,02,07,06,24,-10.50
2014,02,07,06,25,-10.40
2014,02,07,06,27,-10.40
2014,02,07,06,29,-10.40
2014,02,07,06,30,-10.40
2014,02,07,06,31,-10.40
2014,02,07,06,32,-10.40
2014,02,07,06,34,-10.40
2014,02,07,06,35,-10.40
2014,02,07,06,36,-10.40
2014,02,07,06,37,-10.40
2014,02,07,06,39,-10.40
2014,02,07,06,40,-10.40
2014,02,07,06,41,-10.40
2014,02,07,06,42,-10.40
2014,02,07,06,43,-10.40
2014,02,07,06,44,-10.40
2014,02,07,06,46,-10.40
2014,02,07,06,47,-10.40
2014,02,07,06,49,-10.40
2014,02,07,06,50,-10.40
2014,02,07,06,52,-10.40
2014,02,07,06,54,-10.40
2014,02,07,06,55,-10.40
2014,02,07,06,56,-10.40
2014,02,07,06,58,-10.40
2014,02,07,07,00,-10.40
2014,02,07,07,01,-10.40
2014,02,07,07,03,-10.40
2014,02,07,07,04,-10.40
2014,02,07,07,05,-10.40
2014,02,07,07,06,-10.40
2014,02,07,07,07,-10.40
2014,02,07,07,08,-10.40
2014,02,07,07,09,-10.40
2014,02,07,07,10,-10.40
2014,02,07,07,11,-10.40
2014,02,07,07,12,-10.40
2014,02,07,07,13,-10.40
2014,02,07,07,14,-10.40
2014,02,07,07,15,-10.40
2014,02,07,07,17,-10.50
2014,02,07,07,18,-10.50
2014,02,07,07,19,-10.50
2014,02,07,07,20,-10.60
2014,02,07,07,21,-10.60
2014,02,07,07,22,-10.60
2014,02,07,07,23,-10.60
2014,02,07,07,25,-10.60
2014,02,07,07,26,-10.60
2014,02,07,07,27,-10.60
2014,02,07,08,06,-10.50
2014,02,07,08,07,-10.50
2014,02,07,08,08,-10.50
2014,02,07,08,09,-10.50
2014,02,07,08,10,-10.50
2014,02,07,08,11,-10.40
2014,02,07,08,12,-10.40
2014,02,07,08,13,-10.40
2014,02,07,08,14,-10.50
2014,02,07,08,16,-10.40
2014,02,07,08,18,-10.40
2014,02,07,08,19,-10.40
2014,02,07,08,20,-10.40
2014,02,07,08,22,-10.40
2014,02,07,08,24,-10.40
2014,02,07,08,26,-10.40
2014,02,07,08,27,-10.30
2014,02,07,08,29,-10.30
2014,02,07,08,31,-10.30
2014,02,07,08,32,-10.30
2014,02,07,08,34,-10.20
2014,02,07,08,36,-10.20
2014,02,07,08,37,-10.10
2014,02,07,08,39,-10.00
2014,02,07,08,40,-9.90
2014,02,07,08,42,-9.90
2014,02,07,08,43,-9.80
2014,02,07,08,44,-9.80
2014,02,07,08,45,-9.80
2014,02,07,08,46,-9.70
2014,02,07,08,48,-9.70
2014,02,07,08,49,-9.70
2014,02,07,08,50,-9.70
2014,02,07,08,51,-9.70
2014,02,07,08,53,-9.70
2014,02,07,08,54,-8.40
2014,02,07,08,55,-8.40
2014,02,07,08,56,-8.40
2014,02,07,08,57,-8.40
2014,02,07,08,58,-8.40
2014,02,07,08,59,-8.40
2014,02,07,09,00,-9.10
2014,02,07,09,02,-9.00
2014,02,07,09,03,-9.00
2014,02,07,09,04,-8.90
2014,02,07,09,05,-8.90
2014,02,07,09,06,-8.80
2014,02,07,09,07,-8.80
2014,02,07,09,08,-8.70
2014,02,07,09,09,-8.70
2014,02,07,09,10,-8.70
2014,02,07,09,11,-8.60
2014,02,07,09,12,-8.60
2014,02,07,09,14,-8.40
2014,02,07,09,16,-8.40
2014,02,07,09,17,-8.30
2014,02,07,09,19,-8.20
2014,02,07,09,21,-8.10
2014,02,07,09,22,-8.10
2014,02,07,09,23,-8.00
2014,02,07,09,25,-7.90
2014,02,07,09,27,-7.80
2014,02,07,09,28,-7.70
2014,02,07,09,29,-7.70
2014,02,07,09,30,-7.60
2014,02,07,09,32,-7.40
2014,02,07,09,33,-7.30
2014,02,07,09,34,-7.30
2014,02,07,09,35,-7.20
2014,02,07,09,37,-7.10
2014,02,07,09,38,-7.10
2014,02,07,09,39,-7.00
2014,02,07,09,41,-6.90
2014,02,07,09,42,-6.80
2014,02,07,09,43,-6.80
2014,02,07,09,44,-6.70
2014,02,07,09,45,-6.70
2014,02,07,09,46,-6.60
2014,02,07,09,47,-6.60
2014,02,07,09,48,-6.50
2014,02,07,09,49,-6.40
2014,02,07,09,51,-6.30
2014,02,07,09,52,-6.30
2014,02,07,09,53,-6.20
2014,02,07,09,55,-6.20
2014,02,07,09,56,-6.20
2014,02,07,09,57,-6.10
2014,02,07,09,58,-6.10
2014,02,07,09,59,-6.00
2014,02,07,10,00,-6.00
2014,02,07,10,01,-5.90
2014,02,07,10,02,-5.90
2014,02,07,10,04,-5.80
2014,02,07,10,05,-5.80
2014,02,07,10,06,-5.80
2014,02,07,10,07,-5.80
2014,02,07,10,08,-5.80
2014,02,07,10,09,-5.70
2014,02,07,10,10,-5.70
2014,02,07,10,11,-5.70
2014,02,07,10,13,-5.60
2014,02,07,10,14,-5.50
2014,02,07,10,15,-5.40
2014,02,07,10,16,-5.40
2014,02,07,10,17,-5.30
2014,02,07,10,19,-5.20
2014,02,07,10,20,-5.20
2014,02,07,10,21,-5.10
2014,02,07,10,22,-5.00
2014,02,07,10,24,-4.80
2014,02,07,10,26,-4.80
2014,02,07,10,27,-4.70
2014,02,07,10,37,-4.30
2014,02,07,10,39,-4.30
2014,02,07,10,41,-4.20
2014,02,07,10,42,-4.10
2014,02,07,10,43,-4.10
2014,02,07,10,44,-4.00
2014,02,07,10,45,-4.00
2014,02,07,10,47,-3.90
2014,02,07,10,48,-3.80
2014,02,07,10,49,-3.80
2014,02,07,10,50,-3.70
2014,02,07,10,52,-3.60
2014,02,07,10,53,-3.60
2014,02,07,10,55,-3.50
2014,02,07,10,56,-3.40
2014,02,07,10,57,-3.30
2014,02,07,10,58,-3.30
2014,02,07,10,59,-3.20
2014,02,07,11,00,-3.20
2014,02,07,11,02,-3.20
2014,02,07,11,04,-3.20
2014,02,07,11,05,-3.10
2014,02,07,11,06,-3.00
2014,02,07,11,07,-2.90
2014,02,07,11,08,-2.90
2014,02,07,11,09,-2.90
2014,02,07,11,10,-2.80
2014,02,07,11,12,-2.70
2014,02,07,11,14,-2.70
2014,02,07,11,15,-2.60
2014,02,07,11,16,-2.60
2014,02,07,11,17,-2.40
2014,02,07,11,18,-2.40
2014,02,07,11,19,-2.30
2014,02,07,11,20,-2.30
2014,02,07,11,21,-2.30
2014,02,07,11,23,-2.30
2014,02,07,11,25,-2.30
2014,02,07,11,26,-2.30
2014,02,07,11,27,-2.30
2014,02,07,11,29,-2.20
2014,02,07,11,30,-2.20
2014,02,07,11,31,-2.10
2014,02,07,11,33,-2.10
2014,02,07,11,34,-2.10
2014,02,07,11,36,-2.00
2014,02,07,11,37,-2.00
2014,02,07,11,38,-1.90
2014,02,07,11,40,-2.00
2014,02,07,11,41,-1.90
2014,02,07,11,42,-1.90
2014,02,07,11,43,-1.90
2014,02,07,11,45,-1.90
2014,02,07,11,46,-1.90
2014,02,07,11,47,-1.90
2014,02,07,11,48,-1.90
2014,02,07,11,49,-1.90
2014,02,07,11,50,-1.80
2014,02,07,11,51,-1.80
2014,02,07,11,52,-1.80
2014,02,07,11,54,-1.80
2014,02,07,11,55,-1.70
2014,02,07,11,57,-1.60
2014,02,07,11,58,-1.40
2014,02,07,12,00,-1.20
2014,02,07,12,01,-1.10
2014,02,07,12,03,-0.90
2014,02,07,12,04,-0.90
2014,02,07,12,05,-0.80
2014,02,07,12,06,-0.80
2014,02,07,12,07,-0.80
2014,02,07,12,08,-0.70
2014,02,07,12,09,-0.60
2014,02,07,12,11,-0.60
2014,02,07,12,12,-0.50
2014,02,07,12,14,-0.40
2014,02,07,12,15,-0.40
2014,02,07,12,16,-0.50
2014,02,07,12,17,-0.60
2014,02,07,12,18,-0.70
2014,02,07,12,19,-0.70
2014,02,07,12,20,-0.80
2014,02,07,12,21,-0.80
2014,02,07,12,22,-0.80
2014,02,07,12,23,-0.80
2014,02,07,12,25,-0.90
2014,02,07,12,26,-0.80
2014,02,07,12,28,-0.80
2014,02,07,12,29,-0.80
2014,02,07,12,30,-0.80
2014,02,07,12,31,-0.80
2014,02,07,12,32,-0.80
2014,02,07,12,33,-0.80
2014,02,07,12,34,-0.70
2014,02,07,12,35,-0.70
2014,02,07,12,36,-0.70
2014,02,07,12,38,-0.60
2014,02,07,12,39,-0.40
2014,02,07,12,40,-0.40
2014,02,07,12,41,-0.30
2014,02,07,12,42,-0.20
2014,02,07,12,44,-0.10
2014,02,07,12,46,-0.10
2014,02,07,12,47,-0.10
2014,02,07,12,48,-0.10
2014,02,07,12,50,-0.20
2014,02,07,12,51,-0.20
2014,02,07,12,53,-0.20
2014,02,07,12,55,-0.10
2014,02,07,12,57,0.00
2014,02,07,12,58,0.10
2014,02,07,12,59,0.10
2014,02,07,13,01,0.30
2014,02,07,13,02,0.40
2014,02,07,13,04,0.70
2014,02,07,13,05,0.80
2014,02,07,13,06,0.90
2014,02,07,13,07,1.00
2014,02,07,13,08,1.10
2014,02,07,13,09,1.10
2014,02,07,13,10,1.10
2014,02,07,13,11,1.20
2014,02,07,13,12,1.20
2014,02,07,13,14,1.20
2014,02,07,13,15,1.20
2014,02,07,13,16,1.20
2014,02,07,13,17,1.20
2014,02,07,13,19,1.20
2014,02,07,13,20,1.20
2014,02,07,13,22,1.20
2014,02,07,13,23,1.20
2014,02,07,13,24,1.20
2014,02,07,13,26,1.30
2014,02,07,13,27,1.30
2014,02,07,13,28,1.30
2014,02,07,13,29,1.30
2014,02,07,13,31,1.30
2014,02,07,13,32,1.40
2014,02,07,13,34,1.30
2014,02,07,13,35,1.30
2014,02,07,13,36,1.30
2014,02,07,13,38,1.30
2014,02,07,13,39,1.40
2014,02,07,13,40,1.40
2014,02,07,13,41,1.40
2014,02,07,13,42,1.50
2014,02,07,13,44,1.50
2014,02,07,13,45,1.50
2014,02,07,13,46,1.50
2014,02,07,13,47,1.40
2014,02,07,13,48,1.40
2014,02,07,13,49,1.40
2014,02,07,13,51,1.30
2014,02,07,13,52,1.30
2014,02,07,13,54,1.30
2014,02,07,13,55,1.30
2014,02,07,13,56,1.30
2014,02,07,13,57,1.30
2014,02,07,13,58,1.30
2014,02,07,14,00,1.30
2014,02,07,14,01,1.30
2014,02,07,14,02,1.30
2014,02,07,14,04,1.40
2014,02,07,14,05,1.40
2014,02,07,14,06,1.40
2014,02,07,14,07,1.40
2014,02,07,14,08,1.40
2014,02,07,14,09,1.40
2014,02,07,14,10,1.40
2014,02,07,14,11,1.40
2014,02,07,14,12,1.40
2014,02,07,14,13,1.40
2014,02,07,14,15,1.40
2014,02,07,14,16,1.40
2014,02,07,14,18,1.30
2014,02,07,14,19,1.30
2014,02,07,14,20,1.30
2014,02,07,14,22,1.40
2014,02,07,14,24,1.40
2014,02,07,14,25,1.40
2014,02,07,14,26,1.40
2014,02,07,14,27,1.40
2014,02,07,14,29,1.30
2014,02,07,14,30,1.40
2014,02,07,14,31,1.40
2014,02,07,14,32,1.40
2014,02,07,14,33,1.40
2014,02,07,14,34,1.40
2014,02,07,14,35,1.50
2014,02,07,14,36,1.60
2014,02,07,14,37,1.60
2014,02,07,14,38,1.60
2014,02,07,14,39,1.60
2014,02,07,14,40,1.60
2014,02,07,14,41,1.50
2014,02,07,14,42,1.50
2014,02,07,14,43,1.50
2014,02,07,14,45,1.50
2014,02,07,14,47,1.50
2014,02,07,14,48,1.50
2014,02,07,14,50,1.40
2014,02,07,14,51,1.40
2014,02,07,14,52,1.40
2014,02,07,14,53,1.40
2014,02,07,14,54,1.40
2014,02,07,14,55,1.40
2014,02,07,14,56,1.40
2014,02,07,14,58,1.40
2014,02,07,14,59,1.40
2014,02,07,15,00,1.40
2014,02,07,15,01,1.50
2014,02,07,15,03,1.50
2014,02,07,15,04,1.50
2014,02,07,15,05,1.40
2014,02,07,15,06,1.40
2014,02,07,15,07,1.40
2014,02,07,15,08,1.40
2014,02,07,15,09,1.40
2014,02,07,15,10,1.40
2014,02,07,15,11,1.40
2014,02,07,15,12,1.40
2014,02,07,15,13,1.40
2014,02,07,15,14,1.40
2014,02,07,15,15,1.30
2014,02,07,15,17,1.30
2014,02,07,15,18,1.30
2014,02,07,15,19,1.30
2014,02,07,15,21,1.30
2014,02,07,15,22,1.30
2014,02,07,15,23,1.30
2014,02,07,15,24,1.30
2014,02,07,15,25,1.30
2014,02,07,15,27,1.30
2014,02,07,15,28,1.20
2014,02,07,15,30,1.20
2014,02,07,15,31,1.30
2014,02,07,15,32,1.30
2014,02,07,15,33,1.30
2014,02,07,15,34,1.30
2014,02,07,15,35,1.30
2014,02,07,15,37,1.30
2014,02,07,15,38,1.30
2014,02,07,15,39,1.30
2014,02,07,15,40,1.30
2014,02,07,15,41,1.30
2014,02,07,15,42,1.30
2014,02,07,15,43,1.30
2014,02,07,15,44,1.30
2014,02,07,15,45,1.30
2014,02,07,15,47,1.30
2014,02,07,15,48,1.30
2014,02,07,15,50,1.30
2014,02,07,15,51,1.30
2014,02,07,15,52,1.30
2014,02,07,15,53,1.30
2014,02,07,15,54,1.30
2014,02,07,15,55,1.30
2014,02,07,15,56,1.20
2014,02,07,15,57,1.20
2014,02,07,15,59,1.20
2014,02,07,16,00,1.20
2014,02,07,16,01,1.20
2014,02,07,16,03,1.20
2014,02,07,16,04,1.20
2014,02,07,16,05,1.20
2014,02,07,16,06,1.20
2014,02,07,16,07,1.20
2014,02,07,16,08,1.20
2014,02,07,16,09,1.20
2014,02,07,16,11,1.10
2014,02,07,16,12,1.10
2014,02,07,16,13,1.10
2014,02,07,16,14,1.10
2014,02,07,16,15,1.10
2014,02,07,16,16,1.00
2014,02,07,16,18,0.90
2014,02,07,16,19,1.00
2014,02,07,16,20,1.00
2014,02,07,16,21,0.90
2014,02,07,16,22,0.90
2014,02,07,16,23,0.90
2014,02,07,16,25,0.90
2014,02,07,16,26,0.90
2014,02,07,16,27,0.90
2014,02,07,16,28,0.80
2014,02,07,16,29,0.80
2014,02,07,16,30,0.80
2014,02,07,16,31,0.80
2014,02,07,16,32,0.80
2014,02,07,16,33,0.80
2014,02,07,16,34,0.80
2014,02,07,16,35,0.80
2014,02,07,16,36,0.80
2014,02,07,16,38,0.80
2014,02,07,16,39,0.80
2014,02,07,16,40,0.70
2014,02,07,16,41,0.70
2014,02,07,16,43,0.70
2014,02,07,16,44,0.70
2014,02,07,16,46,0.60
2014,02,07,16,48,0.60
2014,02,07,16,50,0.50
2014,02,07,16,51,0.50
2014,02,07,16,52,0.40
2014,02,07,16,54,0.40
2014,02,07,16,55,0.30
2014,02,07,16,57,0.30
2014,02,07,16,59,0.30
2014,02,07,17,00,0.20
2014,02,07,17,02,0.20
2014,02,07,17,03,0.20
2014,02,07,17,04,0.20
2014,02,07,17,05,0.20
2014,02,07,17,06,0.10
2014,02,07,17,07,0.10
2014,02,07,17,08,0.10
2014,02,07,17,09,0.10
2014,02,07,17,10,0.10
2014,02,07,17,11,0.10
2014,02,07,17,12,0.00
2014,02,07,17,13,0.00
2014,02,07,17,15,0.00
2014,02,07,17,16,0.00
2014,02,07,17,17,-0.10
2014,02,07,17,18,-0.10
2014,02,07,17,19,-0.10
2014,02,07,17,20,-0.10
2014,02,07,17,21,-0.10
2014,02,07,17,22,-0.10
2014,02,07,17,23,-0.10
2014,02,07,17,24,-0.10
2014,02,07,17,26,-0.10
2014,02,07,17,27,-0.10
2014,02,07,17,29,-0.20
2014,02,07,17,31,-0.20
2014,02,07,17,33,-0.20
2014,02,07,17,34,-0.20
2014,02,07,17,36,-0.30
2014,02,07,17,37,-0.30
2014,02,07,17,38,-0.30
2014,02,07,17,39,-0.30
2014,02,07,17,41,-0.30
2014,02,07,17,42,-0.30
2014,02,07,17,43,-0.30
2014,02,07,17,45,-0.30
2014,02,07,17,46,-0.40
2014,02,07,17,47,-0.40
2014,02,07,17,48,-0.40
2014,02,07,17,50,-0.40
2014,02,07,17,52,-0.40
2014,02,07,17,54,-0.40
2014,02,07,17,55,-0.40
2014,02,07,17,56,-0.40
2014,02,07,17,57,-0.40
2014,02,07,17,58,-0.50
2014,02,07,17,59,-0.50
2014,02,07,18,00,-0.50
2014,02,07,18,01,-0.50
2014,02,07,18,02,-0.50
2014,02,07,18,04,-0.60
2014,02,07,18,05,-0.60
2014,02,07,18,06,-0.60
2014,02,07,18,07,-0.60
2014,02,07,18,08,-0.60
2014,02,07,18,09,-0.60
2014,02,07,18,10,-0.60
2014,02,07,18,11,-0.70
2014,02,07,18,12,-0.70
2014,02,07,18,14,-0.70
2014,02,07,18,15,-0.70
2014,02,07,18,16,-0.70
2014,02,07,18,17,-0.70
2014,02,07,18,18,-0.80
2014,02,07,18,19,-0.80
2014,02,07,18,20,-0.80
2014,02,07,18,21,-0.80
2014,02,07,18,22,-0.80
2014,02,07,18,24,-0.80
2014,02,07,18,25,-0.80
2014,02,07,18,26,-0.80
2014,02,07,18,27,-0.80
2014,02,07,18,29,-0.80
2014,02,07,18,30,-0.80
2014,02,07,18,32,-0.80
2014,02,07,18,33,-0.80
2014,02,07,18,35,-0.80
2014,02,07,18,36,-0.80
2014,02,07,18,38,-0.80
2014,02,07,18,39,-0.80
2014,02,07,18,41,-0.90
2014,02,07,18,42,-0.90
2014,02,07,18,43,-0.90
2014,02,07,18,44,-0.90
2014,02,07,18,45,-0.90
2014,02,07,18,46,-0.90
2014,02,07,18,48,-0.90
2014,02,07,18,49,-0.90
2014,02,07,18,50,-0.90
2014,02,07,18,51,-0.90
2014,02,07,18,52,-1.00
2014,02,07,18,53,-1.00
2014,02,07,18,54,-1.00
2014,02,07,18,56,-1.00
2014,02,07,18,57,-1.00
2014,02,07,18,58,-1.00
2014,02,07,19,00,-1.00
2014,02,07,19,01,-1.00
2014,02,07,19,03,-1.00
2014,02,07,19,04,-1.00
2014,02,07,19,05,-1.10
2014,02,07,19,06,-1.10
2014,02,07,19,07,-1.10
2014,02,07,19,08,-1.10
2014,02,07,19,09,-1.10
2014,02,07,19,10,-1.10
2014,02,07,19,12,-1.10
2014,02,07,19,13,-1.10
2014,02,07,19,15,-1.10
2014,02,07,19,16,-1.00
2014,02,07,19,18,-1.00
2014,02,07,19,19,-1.00
2014,02,07,19,20,-0.90
2014,02,07,19,22,-1.00
2014,02,07,19,23,-1.00
2014,02,07,19,24,-1.00
2014,02,07,19,25,-1.00
2014,02,07,19,26,-1.10
2014,02,07,19,27,-1.10
2014,02,07,19,28,-1.10
2014,02,07,19,29,-1.00
2014,02,07,19,30,-1.00
2014,02,07,19,31,-1.00
2014,02,07,19,32,-1.00
2014,02,07,19,33,-1.10
2014,02,07,19,34,-1.10
2014,02,07,19,35,-1.10
2014,02,07,19,36,-1.10
2014,02,07,19,37,-1.10
2014,02,07,19,38,-1.10
2014,02,07,19,39,-1.10
2014,02,07,19,40,-1.10
2014,02,07,19,41,-1.10
2014,02,07,19,42,-1.10
2014,02,07,19,43,-1.10
2014,02,07,19,44,-1.10
2014,02,07,19,45,-1.10
2014,02,07,19,46,-1.10
2014,02,07,19,47,-1.20
2014,02,07,19,48,-1.20
2014,02,07,19,49,-1.20
2014,02,07,19,50,-1.20
2014,02,07,19,51,-1.20
2014,02,07,19,52,-1.20
2014,02,07,19,53,-1.20
2014,02,07,19,54,-1.20
2014,02,07,19,55,-1.20
2014,02,07,19,56,-1.20
2014,02,07,19,57,-1.20
2014,02,07,19,58,-1.20
2014,02,07,19,59,-1.20
2014,02,07,20,00,-1.20
2014,02,07,20,01,-1.20
2014,02,07,20,02,-1.20
2014,02,07,20,03,-1.20
2014,02,07,20,04,-1.20
2014,02,07,20,05,-1.20
2014,02,07,20,06,-1.20
2014,02,07,20,07,-1.20
2014,02,07,20,08,-1.20
2014,02,07,20,09,-1.20
2014,02,07,20,10,-1.20
2014,02,07,20,11,-1.20
2014,02,07,20,12,-1.20
2014,02,07,20,13,-1.20
2014,02,07,20,14,-1.30
2014,02,07,20,15,-1.30
2014,02,07,20,16,-1.30
2014,02,07,20,17,-1.30
2014,02,07,20,18,-1.30
2014,02,07,20,19,-1.30
2014,02,07,20,20,-1.30
2014,02,07,20,21,-1.30
2014,02,07,20,22,-1.30
2014,02,07,20,23,-1.30
2014,02,07,20,24,-1.30
2014,02,07,20,25,-1.30
2014,02,07,20,26,-1.30
2014,02,07,20,27,-1.30
2014,02,07,20,28,-1.30
2014,02,07,20,29,-1.20
2014,02,07,20,30,-1.20
2014,02,07,20,31,-1.20
2014,02,07,20,32,-1.20
2014,02,07,20,33,-1.20
2014,02,07,20,34,-1.20
2014,02,07,20,35,-1.20
2014,02,07,20,36,-1.20
2014,02,07,20,37,-1.20
2014,02,07,20,38,-1.20
2014,02,07,20,39,-1.20
2014,02,07,20,40,-1.20
2014,02,07,20,41,-1.20
2014,02,07,20,42,-1.20
2014,02,07,20,43,-1.20
2014,02,07,20,44,-1.20
2014,02,07,20,45,-1.20
2014,02,07,20,46,-1.20
2014,02,07,20,47,-1.20
2014,02,07,20,48,-1.20
2014,02,07,20,49,-1.20
2014,02,07,20,50,-1.20
2014,02,07,20,51,-1.20
2014,02,07,20,52,-1.20
2014,02,07,20,53,-1.20
2014,02,07,20,54,-1.20
2014,02,07,20,55,-1.20
2014,02,07,20,56,-1.30
2014,02,07,20,57,-1.30
2014,02,07,20,58,-1.30
2014,02,07,20,59,-1.30
2014,02,07,21,00,-1.30
2014,02,07,21,01,-1.30
2014,02,07,21,02,-1.30
2014,02,07,21,03,-1.30
2014,02,07,21,04,-1.30
2014,02,07,21,05,-1.30
2014,02,07,21,06,-1.30
2014,02,07,21,07,-1.30
2014,02,07,21,08,-1.30
2014,02,07,21,09,-1.30
2014,02,07,21,10,-1.30
2014,02,07,21,11,-1.30
2014,02,07,21,12,-1.30
2014,02,07,21,13,-1.30
2014,02,07,21,14,-1.30
2014,02,07,21,15,-1.30
2014,02,07,21,16,-1.30
2014,02,07,21,17,-1.30
2014,02,07,21,18,-1.40
2014,02,07,21,19,-1.40
2014,02,07,21,20,-1.40
2014,02,07,21,21,-1.40
2014,02,07,21,22,-1.50
2014,02,07,21,23,-1.60
2014,02,07,21,24,-1.60
2014,02,07,21,25,-1.60
2014,02,07,21,26,-1.70
2014,02,07,21,27,-1.70
2014,02,07,21,28,-1.70
2014,02,07,21,29,-1.80
2014,02,07,21,30,-1.80
2014,02,07,21,31,-1.80
2014,02,07,21,32,-1.90
2014,02,07,21,33,-1.90
2014,02,07,21,34,-1.90
2014,02,07,21,35,-1.90
2014,02,07,21,36,-2.00
2014,02,07,21,37,-2.10
2014,02,07,21,38,-2.10
2014,02,07,21,39,-2.10
2014,02,07,21,40,-2.20
2014,02,07,21,41,-2.20
2014,02,07,21,42,-2.20
2014,02,07,21,43,-2.30
2014,02,07,21,44,-2.30
2014,02,07,21,45,-2.30
2014,02,07,21,46,-2.30
2014,02,07,21,47,-2.30
2014,02,07,21,48,-2.40
2014,02,07,21,49,-2.40
2014,02,07,21,50,-2.40
2014,02,07,21,51,-2.40
2014,02,07,21,52,-2.50
2014,02,07,21,53,-2.50
2014,02,07,21,54,-2.60
2014,02,07,21,55,-2.60
2014,02,07,21,56,-2.60